Tracking 23440 objects as of 13-Jun-2021
HD Live streaming from Space Station
objects crossing your sky now

ARIANE 5 DEB (SYLDA)

Track ARIANE 5 DEB (SYLDA) now!


NORAD ID: 44478
Int'l Code: 2019-049D
Perigee: 252.4 km
Apogee: 29,398.0 km
Inclination: 4.3 °
Period: 511.9 minutes
Semi major axis: 21196 km
RCS: Unknown
Launch date: August 6, 2019
Source: France (FR)
Launch site: FRENCH GUIANA (FRGUI)

Note: This is SATELLITE DEBRIS
aabbcc
Your satellite tracking list
Your tracking list is empty




NASA's NSSDC Master Catalog

Two Line Element Set (TLE):
1 44478U 19049D   21163.36343879  .00015607  00000-0  28430-2 0  9994
2 44478   4.3480 111.4299 6875191 106.7604 333.9031  2.81330268 17436
Source of the keplerian elements: AFSPC